Regional Weather Roundup
Issued by NWS

Home | Current Version | Previous Version | Text Only | Print | Product List | Glossary Off
Versions: 1 2 3 4 5 6 7 8 9 10 11 12 13 14 15 16 17 18 19 20 21 22 23 24 25 26 27 28 29 30 31 32 33 34 35 36 37 38 39 40 41 42 43 44 45 46 47 48 49 50

661
ASUS43 KLOT 290704
RWRIL

ILLINOIS REGIONAL WEATHER ROUNDUP
NATIONAL WEATHER SERVICE CHICAGO/ROMEOVILLE IL
200 AM CDT MON MAY 29 2017

NOTE: "FAIR" INDICATES FEW OR NO CLOUDS BELOW 12,000 FEET WITH NO
SIGNIFICANT WEATHER AND/OR OBSTRUCTIONS TO VISIBILITY.

* THESE STATIONS ARE NOT UNDER NWS QUALITY CONTROL. THEY ALSO MAY NOT
  REPORT WEATHER SUCH AS PRECIPITATION OR FOG.

ILZ001-002-007-009-015-016-024-290800-
NORTHWEST ILLINOIS

CITY           SKY/WX    TMP DP  RH WIND       PRES   REMARKS
MOLINE         CLEAR     58  50  75 SW5       29.79F
STERLING*      CLEAR     58  54  86 SW5       29.78
SAVANNA*       CLEAR     63  49  61 NW7       29.78S
$$

ILZ003-004-008-010-011-017-018-290800-
NORTH CENTRAL ILLINOIS

CITY           SKY/WX    TMP DP  RH WIND       PRES   REMARKS
ROCKFORD       PTCLDY    57  51  80 S3        29.77S
FREEPORT*      CLEAR     58  49  71 SW7       29.79R
ROCHELLE*      CLEAR     57  54  89 SW3       29.78F
DE KALB*       PTCLDY    60  51  71 SW6       29.78F
$$

ILZ005-006-012>014-019>023-290800-
NORTHEAST ILLINOIS

CITY           SKY/WX    TMP DP  RH WIND       PRES   REMARKS
CHICAGO-OHARE  CLOUDY    64  50  60 SW5       29.76S
CHICAGO-MIDWAY MOCLDY    64  51  62 S6        29.77S
AURORA         CLOUDY    62  53  72 CALM      29.78S
LANSING*       LGT RAIN  59  55  84 CALM      29.78F
JOLIET*        CLOUDY    61  56  84 CALM      29.79S
WAUKEGAN       MOCLDY    59  49  69 SW5       29.75R
DUPAGE AIRPORT CLOUDY    59  54  83 S5        29.77R
WHEELING       CLOUDY    61  51  70 CALM      29.78R
MORRIS*        CLOUDY    60  53  76 CALM      29.78S
ROMEOVILLE*    CLOUDY    61  56  84 S7        29.79S
NORTHERLY ISL    N/A     66  48  52 SW5         N/A
$$

LMZ740>746-290800-
SOUTHERN LAKE MICHIGAN

STATION/POSITION SKY/WX   TEMP    WIND        PRES    VSBY  WAVE
                          AIR SEA DIR/SP/G                  HT/PER
                          (F)     (DEG/KT/KT) (MB)    (MI)  (FT/S)
SOUTHERN BUOY              53 47  270/ 10/ 10 1006.8          1
WILMETTE HARBOR            58 56  220/  6/  6   N/A           0
HARRISON CRIB              71     230/  8/  9   N/A
BURNHAM HARBOR             66     250/  3/  6   N/A
CALUMET HARBOR             64     200/  4/  5 1008.2R
BURNS HARBOR               63     200/  7/  9 1009.1R
MICHIGAN CITY              63     190/  9/ 10   N/A
MICHIGAN CITY 6N           60 58  200/  8/  8   N/A           0
ST. JOSEPH                 61 59  230/  8/ 10 1008.5R         1
$$

ILZ025>027-034>036-040-047-049-050-058-095>099-290800-
WEST-CENTRAL ILLINOIS

CITY           SKY/WX    TMP DP  RH WIND       PRES   REMARKS
QUINCY         CLOUDY    62  53  72 SW7       29.88R
GALESBURG*     CLEAR     60  49  66 SW6       29.83
MACOMB*        PTCLDY    60  51  71 W6        29.86R
JACKSONVILLE*  CLOUDY    63  57  79 SW6       29.86S
PITTSFIELD*    PTCLDY    67  55  65 W5        29.89R
$$

ILZ028>032-037-038-041>044-048-051>054-059>061-290800-
CENTRAL ILLINOIS

CITY           SKY/WX    TMP DP  RH WIND       PRES   REMARKS
PONTIAC        CLOUDY    65  51  60 SW9       29.80F
BLOOMINGTON    MOCLDY    63  54  72 SW10      29.84R
DECATUR        CLEAR     60  54  80 SW8       29.85S
PEORIA         MOCLDY    63  52  67 W5        29.82S
LACON*         PTCLDY    62  53  72 SW9       29.80R
LINCOLN*       CLOUDY    67  57  70 SW5       29.84R
SPRINGFIELD    MOCLDY    65  58  78 SW6       29.85R
TAYLORVILLE    NOT AVBL
$$

ILZ033-039-045-046-055>057-062-063-290800-
EAST-CENTRAL ILLINOIS

CITY           SKY/WX    TMP DP  RH WIND       PRES   REMARKS
CHAMPAIGN      CLEAR     62  54  74 SW10      29.84S
RANTOUL*       CLEAR     62  56  82 SW7       29.83S
MATTOON        CLEAR     64  54  69 SW6       29.85S
PARIS*         CLEAR     60  55  84 SW7       29.86S
$$

ILZ079-100>102-290800-
SOUTHWEST ILLINOIS

CITY           SKY/WX    TMP DP  RH WIND       PRES   REMARKS
BELLEVILLE     CLEAR     63  56  80 SW7       29.90S
CAHOKIA*       CLEAR     65  56  72 SW5       29.89S
SPARTA*        PTCLDY    65  57  75 SW5       29.92S
$$

ILZ064>066-069>071-074>076-080>082-084>086-088>090-092>094-290800-
SOUTH-CENTRAL ILLINOIS

CITY           SKY/WX    TMP DP  RH WIND       PRES   REMARKS
CARBONDALE     CLOUDY    60  60 100 CALM      29.90F
CAIRO*         MOCLDY    65  64  93 CALM      29.93R
EFFINGHAM*     CLEAR     60  57  91 S5        29.90R
MARION         CLOUDY    61  61 100 CALM      29.91F
CENTRALIA*     CLEAR     64  59  84 SW6       29.89F
SALEM*         CLEAR     63  57  79 CALM      29.89S
$$

ILZ067-068-072-073-078-083-087-091-290800-
SOUTHEAST ILLINOIS

CITY           SKY/WX    TMP DP  RH WIND       PRES   REMARKS
LAWRENCEVILLE  PTCLDY    65  59  81 W3        29.87F
FLORA*         CLEAR     64  58  80 SW6       29.89S
FAIRFIELD*     PTCLDY    60  59  99 CALM      29.88F
HARRISBURG*    CLOUDY    61  61 100 CALM      29.90F FOG
ROBINSON*      CLEAR     61  56  83 SW6       29.88S
CARMI*         MOCLDY    63  62  97 CALM      29.89S
$$

ABBREVIATIONS USED IN REMARKS
   TC - TEMPERATURE IN CELSIUS
  WCI - WIND CHILL INDEX
   HX - HEAT INDEX
  VSB - VISIBILITY
$$





USA.gov is the U.S. government's official web portal to all federal, state and local government web resources and services.